This demonstration page uses our WeatherBlox Daily Observations layout. Learn more.

Left ArrowRight Arrow

39.29038, -76.61219

Hourly Observations for January 31, 2015

Temp ( °F °C ) Dew Point ( °F °C ) Humidity (%) Winds ( mph kmh ) Pressure ( in mb ) Visibility ( mi km ) Precip ( " mm )
12:54 am 00:54 undefined 20 -6.7 0 -17.8 41 41 undefined N/A 30.25 1024 N/A 0.00 0.00
1:54 am 01:54 undefined 20 -6.7 -1 -18.3 40 40 undefined N/A 30.27 1025 N/A 0.00 0.00
2:54 am 02:54 undefined 19 -7.2 -1 -18.3 41 41 undefined N/A 30.27 1025 N/A 0.00 0.00
3:54 am 03:54 undefined 19 -7.2 0 -17.8 43 43 undefined N/A 30.27 1025 N/A 0.00 0.00
4:54 am 04:54 undefined 19 -7.2 2 -16.7 47 47 undefined N/A 30.27 1025 N/A 0.00 0.00
5:54 am 05:54 undefined 19 -7.2 2 -16.7 47 47 undefined N/A 30.27 1025 N/A 0.00 0.00
6:54 am 06:54 undefined 19 -7.2 2 -16.7 47 47 undefined N/A 30.28 1026 N/A 0.00 0.00
7:54 am 07:54 undefined 19 -7.2 4 -15.6 51 51 undefined N/A 30.31 1026 N/A 0.00 0.00
8:54 am 08:54 undefined 20 -6.7 4 -15.6 50 50 undefined N/A 30.32 1027 N/A 0.00 0.00
9:54 am 09:54 undefined 22 -5.6 2 -16.7 42 42 undefined N/A 30.33 1027 N/A 0.00 0.00
10:54 am 10:54 undefined 24 -4.4 2 -16.7 38 38 undefined N/A 30.32 1027 N/A 0.00 0.00
11:54 am 11:54 undefined 25 -3.9 4 -15.6 40 40 undefined N/A 30.31 1026 N/A 0.00 0.00
12:54 pm 12:54 undefined 27 -2.8 4 -15.6 37 37 undefined N/A 30.27 1025 N/A 0.00 0.00
1:54 pm 13:54 undefined 29 -1.7 4 -15.6 34 34 undefined N/A 30.27 1025 N/A 0.00 0.00
2:54 pm 14:54 undefined 28 -2.2 4 -15.6 35 35 undefined N/A 30.27 1025 N/A 0.00 0.00
3:54 pm 15:54 undefined 30 -1.1 3 -16.1 31 31 undefined N/A 30.25 1025 N/A 0.00 0.00
4:54 pm 16:54 undefined 30 -1.1 4 -15.6 33 33 undefined N/A 30.26 1025 N/A 0.00 0.00
5:54 pm 17:54 undefined 30 -1.1 5 -15 34 34 undefined N/A 30.27 1025 N/A 0.00 0.00
6:54 pm 18:54 undefined 29 -1.7 6 -14.4 38 38 undefined N/A 30.28 1025 N/A 0.00 0.00
7:54 pm 19:54 undefined 29 -1.7 7 -13.9 39 39 undefined N/A 30.27 1025 N/A 0.00 0.00
8:54 pm 20:54 undefined 28 -2.2 8 -13.3 43 43 undefined N/A 30.27 1025 N/A 0.00 0.00
9:54 pm 21:54 undefined 27 -2.8 9 -12.8 46 46 undefined N/A 30.27 1025 N/A 0.00 0.00
10:54 pm 22:54 undefined 27 -2.8 10 -12.2 49 49 undefined N/A 30.27 1025 N/A 0.00 0.00
11:54 pm 23:54 undefined 26 -3.3 11 -11.7 53 53 undefined N/A 30.28 1025 N/A 0.00 0.00

Powered by AerisWeather